RH
55 61 78 75 73 60 51 42 57 51 44 38 34 24 25 20 17 18 16 12 14 18 20 17 11 15 31 33 43 23 19 30 22 23 19 23 45 44 26 27 25 39 66
82 69 54 42 43 42 42 56 64 59 40 35 25 27 25 20 16 23 14 14 18 24 16 14 13 13 42 48 42 22 21 34 27 43 46 34 49 57 46 30 26 29 29
46 41 39 46 62 77 86 83 75 65 49 34 29 24 21 18 18 24 14 19 24 31 22 13 11 47 44 57 42 35 17 36 29 43 61 58 45 70 66 53 39 28 27
40 44 48 61 86 86 91 73 72 62 49 45 30 24 19 18 20 25 21 26 38 22 17 24 28 32 86 56 50 46 27 24 33 33 38 60 56 59 72 73 66 40 36
76 65 71 94 100 99 96 86 71 63 50 40 31 22 19 24 29 25 20 32 30 16 13 23 31 66 94 97 89 81 51 26 26 26 31 36 60 62 62 74 72 64 51
61 72 74 100 100 100 100 94 85 74 46 30 26 25 22 31 33 22 20 30 24 15 17 22 53 75 84 100 100 100 100 99 98 83 35 28 35 52 55 66 70 67 70
84 75 67 82 100 100 100 100 86 67 39 23 22 21 28 37 27 24 23 21 20 18 16 53 82 93 93 92 91 98 100 97 92 89 80 83 52 44 53 70 67 66 82
89 74 76 99 100 96 88 74 66 53 37 30 27 34 46 31 28 28 41 34 18 15 46 92 100 89 94 76 99 100 100 100 100 89 95 99 64 64 61 72 68 76 77
93 87 70 72 78 69 64 49 49 53 47 37 45 48 50 38 36 26 38 35 16 13 100 100 88 80 81 80 100 100 100 100 100 99 97 68 99 98 98 100 91 82 93
93 67 60 72 78 69 60 45 39 45 56 77 62 83 48 36 38 30 40 37 13 19 100 100 99 96 97 98 100 99 98 100 100 100 100 98 100 100 100 99 100 100 100
100 91 79 76 82 90 95 73 68 62 80 98 100 81 46 41 40 47 36 24 12 28 100 100 100 100 96 76 100 84 81 100 91 100 100 99 100 100 100 100 100 100 100
95 100 87 77 67 62 64 62 57 66 85 84 91 77 51 46 58 64 31 21 12 48 100 100 100 100 100 99 91 41 98 83 100 77 96 98 100 100 100 100 100 100 100
99 91 92 96 100 100 100 90 97 86 74 90 91 82 61 47 80 45 33 18 14 72 100 100 100 100 100 99 40 57 99 91 100 90 73 83 100 100 100 100 100 100 100
98 99 95 96 93 97 94 79 85 100 100 100 68 64 52 56 82 66 37 23 14 63 100 100 100 100 100 100 66 46 100 100 100 69 65 74 72 95 100 100 100 100 100
100 96 96 100 100 100 100 100 100 100 100 99 85 72 66 96 98 77 51 32 18 74 100 100 100 100 100 100 90 34 41 72 100 97 81 69 59 56 78 89 87 94 95
60 81 96 100 100 100 95 95 90 99 95 100 100 89 91 96 87 72 55 34 19 72 100 100 100 100 100 100 100 100 63 96 100 96 86 65 53 55 55 61 66 71 92
26 35 77 69 100 100 100 100 100 100 100 90 100 100 100 100 90 74 46 32 19 48 100 100 100 100 100 100 100 100 79 100 100 100 98 76 72 60 68 61 62 50 61
16 24 32 49 66 100 100 100 100 100 100 100 100 100 100 98 92 62 38 33 21 28 100 100 100 100 100 100 100 99 100 84 89 100 100 99 77 97 100 100 90 69 89
17 14 21 30 36 40 76 97 100 100 99 100 100 100 100 97 84 72 47 37 26 16 100 100 100 100 100 100 100 100 100 100 92 93 100 100 100 97 100 81 82 100 98
19 29 26 27 36 38 35 40 62 86 96 81 98 100 100 81 54 66 57 48 31 11 87 100 100 95 100 100 100 100 100 100 100 83 81 100 100 100 100 100 94 94 85
19 21 40 34 35 50 40 29 28 39 64 96 97 89 99 78 66 74 65 52 33 13 34 100 100 100 96 87 100 100 100 97 100 100 100 100 100 100 100 100 100 100 81
23 28 26 54 37 42 57 47 36 33 32 46 67 87 99 100 100 88 68 56 43 19 22 98 100 100 100 81 85 98 100 92 98 97 99 100 100 100 100 100 100 100 100
39 31 37 36 59 42 42 53 44 37 33 31 40 68 92 100 100 99 69 56 51 33 18 96 100 100 100 100 94 89 80 89 100 100 93 94 99 100 100 100 100 100 100
44 47 38 41 44 60 49 49 41 43 42 43 46 48 66 89 94 100 77 59 55 44 20 24 100 100 100 100 100 100 93 72 84 96 100 96 80 87 100 100 100 100 100
41 50 62 52 45 54 63 61 54 44 48 48 48 38 42 76 97 100 87 58 52 45 27 23 32 100 100 100 100 100 94 100 81 100 100 100 100 99 91 91 100 95 89
42 46 47 55 56 57 62 80 75 61 44 53 49 46 43 52 77 98 85 62 52 47 34 27 29 55 100 100 100 100 100 100 100 84 89 97 100 100 95 96 88 90 87
Wind_Speed
42 44 44 43 42 45 45 44 43 41 43 43 46 47 48 50 50 56 47 50 56 53 52 51 48 41 37 37 42 55 58 58 59 56 57 56 57 57 62 62 64 64 62
43 43 45 48 50 50 49 46 44 46 46 47 50 51 51 53 53 57 49 55 58 50 50 48 44 35 33 34 39 50 58 62 60 58 56 56 57 55 57 60 66 65 65
47 48 48 49 52 52 50 48 48 50 51 51 52 52 52 55 57 55 51 59 53 52 51 44 35 30 31 32 36 45 56 64 62 60 58 58 58 55 55 55 61 66 62
51 52 51 53 53 54 50 50 51 54 54 56 56 54 55 56 57 52 52 56 50 50 49 35 31 29 26 25 26 32 45 58 66 62 63 59 60 56 50 51 54 59 62
56 57 55 56 56 53 52 54 55 55 57 59 59 56 57 58 63 51 53 49 48 51 42 31 27 27 24 18 18 21 29 42 56 62 64 63 59 56 56 51 47 51 57
59 62 59 57 59 60 58 56 57 57 60 61 60 59 61 64 51 48 50 51 48 50 31 27 28 29 27 19 21 19 21 30 36 41 54 62 61 58 54 54 51 48 53
63 63 61 59 60 62 60 59 61 62 64 61 60 58 64 55 48 48 52 44 48 37 26 29 29 32 29 21 13 14 13 25 29 31 35 39 51 55 55 50 49 49 46
67 67 63 62 64 66 66 66 67 68 65 63 63 62 58 47 47 48 46 45 45 32 27 32 36 36 32 26 15 9 11 18 25 27 26 27 34 38 48 43 44 40 43
72 70 68 69 69 69 69 67 67 67 65 65 64 62 53 45 46 44 42 43 42 28 32 36 41 41 34 25 22 18 12 14 20 25 25 21 9 23 33 33 37 34 27
75 75 71 69 68 68 70 71 70 72 68 66 64 56 50 46 43 43 42 44 37 26 36 39 43 42 38 34 27 25 18 15 23 30 39 37 18 14 19 23 29 30 33
77 77 75 74 74 73 72 74 75 71 66 64 61 55 52 49 44 40 37 38 32 32 38 44 46 42 35 38 36 31 24 22 24 39 53 50 41 37 34 32 34 31 28
74 74 72 74 77 78 80 78 72 70 71 65 60 58 54 48 40 40 38 36 29 38 45 47 47 44 33 37 34 31 24 27 26 39 55 53 55 50 49 47 45 45 43
81 83 84 83 81 82 83 76 74 73 69 66 63 62 55 44 41 39 37 35 28 39 54 50 50 43 38 39 44 34 28 30 30 34 49 51 52 51 55 54 53 54 52
78 80 80 77 77 80 80 73 69 69 69 65 66 60 52 43 44 41 40 33 28 44 53 52 53 40 39 47 43 38 33 29 30 29 33 51 50 48 47 50 49 55 57
72 73 73 71 69 69 68 67 67 66 63 58 56 52 47 47 46 44 39 35 32 46 53 50 54 42 44 42 41 45 38 31 33 35 35 35 45 47 49 49 50 46 46
84 85 80 69 66 69 71 69 64 61 60 57 55 51 51 47 46 40 40 38 31 48 55 49 55 47 38 43 43 33 34 37 37 38 34 30 36 46 48 46 47 44 41
83 81 83 81 78 70 64 65 67 65 63 58 58 57 55 49 46 41 37 37 33 48 55 48 45 53 45 43 47 41 41 37 36 39 38 37 36 37 40 46 45 45 45
78 78 76 78 76 79 80 70 65 60 57 62 60 58 56 53 48 41 38 36 36 45 59 52 46 44 41 38 45 44 37 42 43 40 45 43 42 45 45 45 43 43 49
83 83 82 77 75 74 79 81 80 77 71 66 58 57 58 55 53 49 47 42 40 45 63 59 55 48 43 48 48 49 44 41 42 44 46 52 48 49 51 52 52 50 49
88 81 82 81 76 73 72 75 80 80 81 80 74 70 69 65 58 56 51 47 43 46 62 57 63 59 50 48 55 56 52 43 35 47 43 50 59 55 54 55 58 57 54
96 93 85 82 77 72 71 71 69 74 78 76 75 74 69 73 68 60 57 52 48 49 55 64 59 60 58 57 51 54 56 54 47 42 56 54 58 61 59 55 55 54 54
100 100 95 87 82 76 70 68 68 66 68 68 69 69 65 64 65 61 61 57 53 54 51 60 64 64 62 61 58 56 52 52 50 49 49 61 60 60 58 59 58 56 57
107 104 101 98 89 81 74 71 71 70 67 65 64 64 66 66 66 66 63 60 59 56 56 60 67 67 70 64 63 61 59 54 53 50 53 51 55 64 65 64 63 61 63
116 110 108 104 99 90 81 75 73 72 68 65 66 66 65 66 67 68 66 64 62 60 62 55 71 67 66 69 69 66 63 62 62 63 51 52 54 56 62 64 62 60 60
121 120 112 109 106 99 89 82 76 74 72 70 67 66 64 65 67 68 69 68 67 65 64 63 60 75 71 72 67 67 68 63 63 54 55 54 54 57 61 61 66 64 64
126 124 122 116 112 106 100 87 82 79 77 75 71 69 67 66 68 71 71 72 72 69 68 66 63 65 72 72 76 72 71 73 65 69 66 62 59 56 57 64 69 70 70
Wind_Direction
255 256 257 264 265 271 272 275 275 274 278 284 288 291 295 306 307 311 300 299 300 297 292 287 285 273 260 251 241 227 227 226 224 226 223 224 229 232 227 228 230 233 237
254 257 261 266 266 271 272 273 272 277 281 286 292 291 296 305 307 309 297 302 301 294 293 290 285 264 250 255 240 222 221 222 221 220 225 223 227 230 230 230 229 233 237
260 261 263 266 270 271 271 272 274 276 281 286 291 293 299 302 303 304 298 304 299 296 296 289 273 252 254 252 236 223 219 218 220 220 223 225 226 229 231 232 232 232 238
257 257 260 265 266 269 268 272 273 277 282 286 290 294 298 300 301 299 297 303 297 300 297 275 262 245 242 237 225 220 220 220 219 223 227 227 227 230 231 232 234 234 237
253 254 260 266 265 266 269 273 274 278 282 286 291 293 295 299 300 294 298 299 300 301 288 262 249 225 221 225 211 212 216 221 223 226 224 228 228 229 233 233 236 237 237
257 255 259 265 261 265 269 272 275 277 281 286 288 291 293 298 295 293 301 298 299 301 273 249 224 213 205 195 198 196 205 212 217 221 227 230 232 232 236 237 241 240 239
259 257 257 260 258 263 267 270 272 276 280 286 287 290 294 296 292 295 299 302 303 292 258 224 218 201 201 179 176 190 207 215 215 221 218 217 226 232 233 236 238 241 243
258 259 255 255 257 261 265 269 272 276 279 280 284 289 294 291 293 298 293 300 306 278 226 217 196 195 194 186 178 199 207 208 211 211 204 207 219 226 232 236 238 241 247
256 256 257 256 256 263 264 270 274 276 278 280 283 289 290 289 296 296 291 299 305 272 207 206 195 196 187 187 187 215 201 193 201 197 180 177 186 229 231 236 236 236 229
256 260 261 258 260 264 264 269 273 274 278 279 282 283 285 291 293 293 294 297 299 246 199 198 198 194 193 184 196 213 190 185 193 181 159 146 128 189 207 217 223 227 221
259 259 260 257 259 262 263 268 271 274 276 277 278 278 285 288 289 292 292 298 291 224 204 197 197 196 194 199 197 204 199 189 188 173 166 166 173 169 183 179 175 190 188
253 256 256 257 259 264 263 269 271 272 275 273 276 277 284 284 279 281 287 298 283 211 204 197 200 191 192 209 211 201 202 193 202 190 174 174 187 192 194 200 202 201 203
255 257 261 263 263 263 266 268 269 271 270 271 274 276 277 275 270 277 281 287 281 214 200 205 204 197 202 208 214 214 208 200 201 202 190 186 193 203 206 213 212 215 214
257 260 261 262 264 265 264 265 265 263 264 266 271 273 271 269 266 270 275 285 276 215 210 212 200 201 202 205 207 213 209 202 210 207 208 202 201 209 214 215 217 220 224
262 261 260 260 259 259 261 262 262 263 265 263 261 260 260 263 260 264 270 273 283 217 211 210 201 201 200 202 208 214 223 217 213 213 214 215 213 209 213 218 219 222 227
262 258 254 253 257 260 265 265 265 262 263 258 256 255 255 255 258 260 268 274 271 216 212 217 212 205 215 216 214 208 220 227 224 221 221 228 217 213 215 218 224 224 226
259 258 257 256 245 246 250 254 258 257 257 258 255 254 254 247 252 259 261 265 255 221 208 216 221 220 216 218 214 220 227 216 214 221 231 224 224 225 222 219 222 232 230
256 258 256 254 250 245 245 242 241 243 247 247 248 247 249 247 252 254 260 255 250 226 209 211 207 206 205 209 211 206 219 222 228 228 227 229 225 220 219 219 224 227 230
259 258 257 256 254 247 243 245 246 245 242 244 244 244 251 251 255 259 258 255 249 227 215 215 212 207 210 214 208 211 229 229 228 230 228 224 225 224 228 232 232 233 229
256 256 255 255 254 252 248 245 243 246 249 249 251 250 252 254 255 255 252 248 246 230 217 218 223 220 219 223 220 224 224 227 227 227 232 229 223 228 234 235 237 241 245
253 252 252 249 249 250 250 249 249 247 245 247 247 248 248 250 249 247 248 243 236 229 223 218 220 219 228 227 227 231 231 230 235 233 225 230 231 234 238 238 243 245 246
251 251 252 250 246 245 246 246 244 243 244 244 246 246 244 243 241 236 240 237 235 226 226 222 218 222 230 232 231 229 236 238 242 236 234 230 231 233 236 239 240 242 246
246 248 248 250 247 243 244 244 246 243 243 243 243 243 242 237 237 229 231 232 231 230 226 217 220 224 226 229 234 232 233 237 236 238 235 233 236 237 241 242 245 244 246
242 243 244 245 248 244 239 241 242 245 242 238 239 239 239 236 235 230 228 229 229 229 226 226 216 220 224 227 230 231 237 239 240 239 235 236 236 237 240 243 242 242 246
236 239 239 242 244 245 241 237 239 240 241 237 236 239 239 236 234 231 231 229 229 226 227 226 227 221 219 226 226 233 238 235 235 236 238 238 240 240 241 244 246 248 248
239 234 236 237 240 241 242 237 236 238 239 239 235 235 236 233 233 232 231 233 231 227 226 227 229 229 226 223 226 231 234 230 226 234 239 239 235 238 239 241 244 248 251